Location: Iowa City
(41.6610°N, 91.5300°W)
Time: 11:15:21
(UTC-05:00)

ISS - Visible Passes

Search period start: 23 March 2017 00:00
Search period end: 02 April 2017 00:00
Orbit: 399 x 409 km, 51.6° (Epoch: 24 March)

Date Brightness Start Highest point End Pass type
(mag) Time Alt. Az. Time Alt. Az. Time Alt. Az.
23 Mar -1.2 04:40:53 19° ESE 04:40:53 19° ESE 04:41:57 10° ESE visible
23 Mar -2.3 06:13:36 15° W 06:14:58 19° SW 06:17:25 10° S visible
24 Mar -2.1 05:24:20 22° S 05:24:20 22° S 05:25:50 10° SSE visible
26 Mar -2.1 20:15:52 10° S 20:17:55 16° SE 20:18:21 15° ESE visible
26 Mar -0.8 21:50:50 10° WSW 21:51:05 12° WSW 21:51:05 12° WSW visible
27 Mar -4.0 20:58:26 10° SW 21:01:40 73° SE 21:01:58 65° E visible
28 Mar -3.2 20:06:19 10° SSW 20:09:21 36° SE 20:12:22 10° ENE visible
28 Mar -1.8 21:42:53 10° W 21:45:17 29° NW 21:45:17 29° NW visible
29 Mar -3.0 20:50:08 10° WSW 20:53:19 49° NNW 20:55:38 17° NE visible
29 Mar -0.2 22:28:10 10° NW 22:28:19 11° NW 22:28:19 11° NW visible
30 Mar -3.8 19:57:36 10° SW 20:00:51 90° NNE 20:04:07 10° NE visible
30 Mar -1.5 21:35:09 10° WNW 21:37:41 20° NNW 21:38:27 19° N visible
31 Mar -1.9 20:42:11 10° W 20:45:02 27° NNW 20:47:55 10° NE visible
31 Mar -0.5 22:20:25 10° NW 22:21:04 12° NNW 22:21:04 12° NNW visible
01 Apr -1.2 21:27:28 10° NW 21:29:34 16° N 21:30:53 13° NNE visible
